EW9302 Weather Reports


time (UTC)temp
C
wind
direction
speed
KPH
gust
KPH
rain 1hr
cm
rain 24hr
cm
rain mn
cm
humidity
%
barometer
mb
20260504081519 3 232 0.0 0.0 0.00 0.03 0.00 72 1005.5
20260504060108 1 274 0.0 0.0 0.00 0.03 0.00 73 1005.5
20260504050022 1 274 0.0 0.0 0.00 0.03 0.03 71 1005.8
20260504044528 1 275 0.0 0.0 0.00 0.03 0.03 72 1005.8
20260504043028 2 275 0.0 4.8 0.00 0.03 0.03 71 1006.1
20260504041517 2 275 0.0 0.0 0.00 0.03 0.03 71 1006.1
20260504040020 1 275 0.0 0.0 0.00 0.03 0.03 72 1006.0
20260504034618 1 274 0.0 0.0 0.00 0.03 0.03 73 1006.0
20260504033048 2 275 0.0 0.0 0.00 0.03 0.03 73 1006.0
20260504031545 2 275 0.0 0.0 0.00 0.03 0.03 74 1006.1
20260504030046 2 274 0.0 0.0 0.00 0.03 0.03 73 1006.0
20260504024549 2 274 0.0 0.0 0.00 0.03 0.03 73 1006.1
20260504024546 2 275 0.0 0.0 0.00 0.03 0.03 73 1006.1
20260504023038 2 274 0.0 0.0 0.00 0.03 0.03 73 1006.2
20260504021537 2 274 0.0 0.0 0.00 0.03 0.03 71 1006.3
20260504020008 2 275 0.0 0.0 0.00 0.03 0.03 71 1006.2
20260504014505 2 274 0.0 0.0 0.00 0.03 0.03 70 1006.3
20260504013001 3 275 0.0 0.0 0.00 0.03 0.03 70 1006.2
20260504011601 3 275 0.0 0.0 0.00 0.03 0.03 68 1006.1
20260504011500 3 274 0.0 0.0 0.00 0.03 0.03 69 1006.1
20260504010100 3 274 0.0 0.0 0.00 0.03 0.03 67 1006.0
20260504004611 4 274 0.0 0.0 0.00 0.03 0.03 68 1006.0
20260504003058 4 275 0.0 0.0 0.00 0.03 0.03 66 1005.9
20260504001601 5 275 0.0 0.0 0.00 0.03 0.03 65 1005.9
20260504000101 5 275 0.0 0.0 0.00 0.03 0.03 64 1005.7
20260503234554 5 274 0.0 0.0 0.00 0.03 0.03 63 1005.8
20260503233052 6 275 0.0 0.0 0.00 0.03 0.03 63 1005.8
20260503231551 6 275 0.0 0.0 0.00 0.03 0.03 62 1005.8
20260503224552 6 274 0.0 0.0 0.00 0.05 0.03 61 1005.8
20260503223047 6 274 0.0 0.0 0.00 0.05 0.03 62 1005.8
20260503221546 6 288 0.0 0.0 0.00 0.05 0.03 61 1005.8
20260503220046 6 274 0.0 0.0 0.00 0.05 0.03 62 1005.8
20260503214547 6 275 0.0 0.0 0.00 0.05 0.03 62 1005.8
20260503213041 6 284 0.0 12.9 0.00 0.05 0.03 62 1005.8
20260503211554 6 292 0.0 0.0 0.00 0.05 0.03 63 1005.8
20260503210040 5 321 0.0 0.0 0.00 0.05 0.03 63 1005.8
20260503204540 5 315 0.0 0.0 0.00 0.05 0.03 63 1005.8
20260503203008 5 298 1.6 12.9 0.00 0.05 0.03 63 1005.8
20260503201508 6 281 0.0 19.3 0.00 0.05 0.03 62 1005.8
20260503200052 6 304 0.0 1.6 0.00 0.05 0.03 61 1005.6
20260503194535 6 308 0.0 3.2 0.00 0.05 0.03 61 1005.7
20260503193005 6 271 0.0 1.6 0.00 0.05 0.03 64 1005.9
20260503191509 5 279 0.0 0.0 0.00 0.05 0.03 69 1006.1
20260503184629 5 281 0.0 32.2 0.00 0.05 0.03 66 1006.3
20260503183102 6 283 0.0 19.3 0.00 0.05 0.03 62 1006.2
20260503181615 6 302 3.2 25.7 0.00 0.05 0.03 59 1006.1
20260503180115 6 295 1.6 20.9 0.00 0.05 0.03 61 1006.2
20260503174559 6 306 0.0 24.1 0.00 0.05 0.03 62 1006.2
20260503173108 5 302 0.0 3.2 0.00 0.05 0.03 63 1006.3
20260503171554 5 300 0.0 0.0 0.00 0.05 0.03 62 1006.2